Погода в Стойбе

Россия / Амурская область     52°47′24″N   131°42′58″E
темп.,
°C
ветер,
м/с
пор.,
м/с
влажн.,
%
обл.,
%
осадки,
мм/ч
давл.,
гПа
погр.,
м
11 апреля, вс
вс1100:00+3ююз3898100 6.3 1013368
03:000з4787100 6.4 1016591
06:00−3зюз379032 0.0 1019456
09:00−2зюз465855 0.0 1020716
12:00−1з476289 0.0 10211314
15:00−1зсз5856100 0.1 10211482
18:00−3зсз476617 0.0 1023985
21:00−8сз2866100 0.0 1027608
12 апреля, пн
пн1200:00−10юз2483100 0.0 102898
03:00−11юз1188100 0.0 102639
06:00−10зюз0183100 0.0 102598
09:00−7ссв0157100 0.0 1023732
12:00−5ссв1246100 0.0 10201069
15:00−4ссв2344100 0.0 10171325
18:00−5ссв3658100 0.0 1015610
21:00−8ссв386794 0.0 1015436
13 апреля, вт
вт1300:00−9ссв3107492 0.0 1013537
03:00−8св41075100 0.0 1011620
06:00−9ссв41086100 0.1 1010595
09:00−7св5881100 0.5 1009766
12:00−5ссв5774100 0.4 10081002
15:00−4ссв6868100 0.6 10071085
18:00−6ссв61073100 0.0 1007844
21:00−8ссв51077100 0.0 1007671
14 апреля, ср
ср1400:00−9ссв41178100 0.0 1007589
03:00−10ссв4977100 0.0 1007452
06:00−10ссв3975100 0.0 1008545
09:00−7св5659100 0.0 10091098
12:00−4ссв4549100 0.1 10081857
15:00−3с3544100 0.1 10091989
18:00−3сз115598 0.0 100937
21:00−8в008647 0.0 101210
15 апреля, чт
чт1500:00−11ююв11957 0.0 101313
03:00−12юв119622 0.0 101413
06:00−11вюв11895 0.0 101429
09:00−2ю12515 0.0 1013476
12:00+1ююз23405 0.0 10121575
15:00+2юв234095 0.0 10091716
18:000вюв1263100 0.0 101041
21:00−3всв2183100 0.0 101027